Regional Weather Roundup
Issued by NWS Newport/Morehead, NC

Home | Current Version | Previous Version | Text Only | Print | Product List | Glossary On
Versions: 1 2 3 4 5 6 7 8 9 10 11 12 13 14 15 16 17 18 19 20 21 22 23 24 25 26 27 28 29 30 31 32 33 34 35 36 37 38 39 40 41 42 43 44 45 46 47 48 49 50
000
ASUS42 KMHX 020827
RWRMHX
WEATHER ROUNDUP FOR EASTERN NORTH CAROLINA
NATIONAL WEATHER SERVICE NEWPORT/MOREHEAD CITY NC
400 AM EDT THU APR 02 2015

NOTE: "FAIR" INDICATES FEW OR NO CLOUDS BELOW 12,000 FEET
WITH NO SIGNIFICANT WEATHER AND/OR OBSTRUCTIONS TO VISIBILITY

NCZ015>017-031-032-045>047-102-103-020900-
NORTH COAST

CITY           SKY/WX    TMP DP  RH WIND       PRES   REMARKS
EDENTON        CLEAR     38  34  85 CALM      30.31R
ELIZABETH CITY CLEAR     42  37  82 S3        30.29F
KITTY HAWK     SUNNY     41  35  77 SE6       30.28F
MANTEO         CLEAR     36  32  86 CALM      30.30S

$$

NCZ045>047-081-094-103-104-020900-
CENTRAL COAST

CITY           SKY/WX    TMP DP  RH WIND       PRES   REMARKS
FRISCO         CLEAR     39  32  76 NE6       30.30F
SWANQUARTER      N/A     41 N/A N/A NE2       30.27R

$$

NCZ095-097-098-100-101-020900-
SOUTHERN COAST

CITY           SKY/WX    TMP DP  RH WIND       PRES   REMARKS
BEAUFORT       CLEAR     47  36  65 N5        30.29R
CEDAR ISLAND     N/A     52 N/A N/A NE9G15    30.33S
JACKSONVILLE   CLEAR     43  35  73 N3        30.28F
PINEY ISLAND   SUNNY    N/A N/A N/A E8        30.28F
WILMINGTON     CLEAR     52  39  61 E8        30.27F


$$

NCZ011>013-027>030-043-044-078>080-089-090>093-098-020900-
COASTAL PLAIN

CITY           SKY/WX    TMP DP  RH WIND       PRES   REMARKS
AHOSKIE        CLEAR     33  31  94 SE3       30.28F
CLINTON        CLEAR     41  40  95 CALM      30.29S
ELIZABETHTOWN  CLEAR     43  42  96 CALM      30.28R
GOLDSBORO      CLEAR     42  41  98 CALM      30.26F
GREENVILLE     CLEAR     43  36  75 SE3       30.28F
HAVELOCK       CLEAR     42  34  73 CALM      30.31R
KENANSVILLE    CLEAR     37  33  88 CALM      30.29S
KINSTON        CLEAR     42  36  78 CALM      30.28F
NEW BERN       CLEAR     49  32  52 SE6       30.30R
RICHLANDS      CLEAR     43  30  61 SE3       30.29S
ROCKY MOUNT    CLEAR     38  35  89 CALM      30.29S
WASHINGTON     CLEAR     37  34  90 CALM      30.30S
WHITEVILLE     CLEAR     50  40  69 E3        30.26S

$$

AMZ130-135-150-152-154-156-158-170-250-252-270-ANZ085-086-088-633-658-670-020900-
MARINE OBSERVATIONS

STATION/POSITION TIME  TEMP    WIND        PRES    WAVE   SWELL
                       AIR SEA DIR/SP/G            HT/PER HT/PER
                 (UTC) (F)     (DEG/KT/KT) (MB)    (FT/S) (FT/S)
CHESAPEAKE LIGHT 0800   43     180/ 12/ 12 1026.0
64 E VA BEACH    0750   47 54  270/  6/  8 1025.7    3/ 8   3/ 8
DUCK             0800   43 43  150/  5/  6 1024.9
2 E DUCK         0811      42                N/A     2/ 6
10 NE DUCK       NOT AVBL
OREGON INLET     0800   43 47  130/  4/  4 1026.0
HATTERAS CG      0800   45 56   70/  4/  5 1026.1
CAPE LOOKOUT     0800   57      90/ 13/ 14 1025.0
BEAUFORT LAB     0800   52 55   40/  3/  4 1024.7
27 SE WRIGHTSVLE 0800   58 63  110/ 17/ 19 1025.9
5 SE WRIGHTSVLE  0800   58 56  110/ 10/ 14 1024.9
225 S CAPE HAT   0750   63 69   50/ 14/ 19 1023.9    6/ 9   3/ 9
41 SE CHARLESTON 0750   65 68   90/ 19/ 21 1022.6    6/ 6   2/11

$$



USA.gov is the U.S. government's official web portal to all federal, state and local government web resources and services.